CZ-6A DEB, 56668

Orbit data source: Space-Track

CZ-6A DEB, 56668 is space debris in SSO originally from a launch on Fri, 11 Nov 2022 UTC launched from the Taiyaun Space Center, China (TSC). Debris objects in space refer to the collection of defunct objects orbiting the Earth. Examples of debris include non-operational satellites, rocket bodies, and fragments generated from explosions, collisions, or faulty payload assembly.

Loading next visibility...
Identifier
56668, 2022-151AGU
Orbit
SSO
Country
Flag of CNCN / PRC
Related business
Manufacturer
SAST
Mission
Spacecraft
Bus & Motor
Unknown
Mass
Unknown
Launch date (UTC)
2022-11-11 (3 years ago)
Launch vehicle
Unknown
Launch site
Taiyaun Space Center, China (TSC)
Object type
Payload
Rocket body
Debris
Shape & HBR
Unknown shape, 0.1 m
Radar Cross Section
Small (<0.1 m²)

Expand to show TLE details & history
Last TLE update: 13 hours ago

TLE from 13 hours ago
0 CZ-6A DEB
1 56668U 22151AGU 26130.11909534  .00002522  00000-0  78248-3 0  9999
2 56668  98.8256 190.6224 0034644 127.7662 232.6673 14.41672109174957
Epoch: 2026-05-10T02:51Z
TLE epoch observation values (Epoch: 2026-05-10T02:51:29.837Z)
Latitude
-0.00001°
Longitude
-80.17868°
Altitude
770.959 km
Speed
7.461 km/s
True Right ascension
12h 42m 29s
True Declination
0° 00' 00"
Sunlit
Object was in full shadow at epoch
Visualization orbit readout
Latitude
Unknown
Longitude
Unknown
Altitude
Unknown
Speed
Unknown
Apparent Right ascension
Unknown
Apparent Declination
Unknown
Sunlit
N/A
Visualization observer readout
Local Sidereal Time
00:19:14
Azimuth
Unknown
Elevation
Unknown
Doppler factor
Unknown
Orbital elements
Apogee altitude
774.81 km
Perigee altitude
725.419 km
Semi-major axis
7,128.251 km
Eccentricity
0.00346
Inclination
98.8256°
RAAN
190.6224°
Arg. of periapsis
127.7662°
True anomaly
232.35247°
Mean anomaly
232.6673°
Eccentric anomaly
232.5098°
Mean motion
3.60636 °/min
Orbital period
99.82 mins
BSTAR
0.00078248
Loading maneuver chart data...
Computing Atmospheric mass density...
Loading historical data...
Loading historical data...
Loading historical data...
Loading historical data...
Loading historical data...
Loading historical data...
Loading historical data...

Documentation

Showing up to 5 results
|